This is the latest recevied weather packets stored in our database for station/object EA5JZL-10. If no packets are shown the sender has not sent any weather packets the latest 10 day(s).
| Time | Temp. | Humidity | Pressure | Rain* | Wind** | Luminosity | Snow |
|---|---|---|---|---|---|---|---|
| 1778009129 | 23.89° C | 44% | 1010.3 hPa | - | - | - | - |
| 1778007329 | 23.89° C | 44% | 1009.8 hPa | - | - | - | - |
| 1778005529 | 24.44° C | 43% | 1009.8 hPa | - | - | - | - |
| 1778003728 | 24.44° C | 44% | 1009.5 hPa | - | - | - | - |
| 1778001928 | 24.44° C | 43% | 1009.5 hPa | - | - | - | - |
| 1778000128 | 23.89° C | 42% | 1009.4 hPa | - | - | - | - |
| 1777998328 | 24.44° C | 41% | 1009.5 hPa | - | - | - | - |
| 1777996528 | 23.89° C | 42% | 1009.4 hPa | - | - | - | - |
| 1777994727 | 23.89° C | 42% | 1009.4 hPa | - | - | - | - |
| 1777992927 | 22.78° C | 41% | 1009.7 hPa | - | - | - | - |
| 1777991127 | 23.33° C | 44% | 1009.9 hPa | - | - | - | - |
| 1777989327 | 22.78° C | 41% | 1010.2 hPa | - | - | - | - |
| 1777987527 | 22.78° C | 44% | 1010.6 hPa | - | - | - | - |
| 1777985726 | 22.78° C | 47% | 1010.8 hPa | - | - | - | - |
| 1777983926 | 22.22° C | 48% | 1011.1 hPa | - | - | - | - |
| 1777982126 | 22.22° C | 52% | 1011.1 hPa | - | - | - | - |
| 1777980326 | 21.67° C | 52% | 1011.7 hPa | - | - | - | - |
| 1777978526 | 21.67° C | 50% | 1012.1 hPa | - | - | - | - |
| 1777976725 | 21.67° C | 55% | 1012.3 hPa | - | - | - | - |
| 1777974925 | 22.22° C | 53% | 1012.4 hPa | - | - | - | - |
| 1777973125 | 21.67° C | 49% | 1012.6 hPa | - | - | - | - |
| 1777971325 | 21.11° C | 57% | 1012.6 hPa | - | - | - | - |
| 1777969525 | 21.11° C | 59% | 1012.8 hPa | - | - | - | - |
| 1777967725 | 21.11° C | 58% | 1012.9 hPa | - | - | - | - |
| 1777965924 | 21.11° C | 58% | 1012.9 hPa | - | - | - | - |
* Rain since midnight (hover to see other rain measurements)
** Current wind speed in m/s (hover to see current wind gust speed)